Location: Taukkyan
(23.1052°N, 94.0030°E)
Time: 10:06:31
(UTC+00:00)

FALCON 9 R/B - Pass Details

Date: 06 July 2020
Orbit: 294 x 10134 km, 34.5° (Epoch: 14 August)

Event Time Altitude Azimuth Distance (km) Brightness Sun altitude
Rises 13:49:47 0° 306° (NW) 2,661 6.7 -16.1°
Reaches altitude 10° 13:53:13 10° 340° (NNW) 1,269 4.0 -16.7°
Maximum altitude 13:54:21 12° 9° (N) 1,066 3.1 -16.9°
Enters shadow 13:55:17 10° 35° (NE) 1,122 2.9 -17.1°
